Location: Berg
(47.2344°N, 9.5296°E)
Time: 15:45:28
(UTC+00:00)

Nauka - Pass Details

Date: 23 September 2021
Orbit: 417 x 423 km, 51.6° (Epoch: 20 October)

Event Time Altitude Azimuth Distance (km) Brightness Sun altitude
Rises 19:44:23 0° 285° (WNW) 2,365 ? -24.8°
Reaches altitude 10° 19:46:34 10° 294° (WNW) 1,502 ? -25.1°
Enters shadow 19:48:43 29° 323° (NW) 798 ? -25.4°
